Dewpoint
26 14 11 22 22 22 20 17 17 18 19 16 16 16 14 15 18 24 27 30 32 40 43 46 47 48 56 57 57 57 57 58 57 57 57 57 56 57 57 57 57 55 53 51
33 18 8 14 22 21 21 20 18 18 17 15 14 14 13 12 16 18 21 29 33 37 42 45 49 49 53 57 57 57 57 57 57 57 56 56 56 57 57 57 54 52 52 51
34 23 18 15 13 16 18 19 18 17 18 17 15 16 16 12 12 15 21 23 31 35 41 45 49 50 52 55 57 57 56 57 56 56 56 56 56 56 55 55 54 52 51 50
37 36 27 28 18 17 16 18 16 17 17 15 16 13 14 13 13 14 18 23 27 30 40 45 48 51 51 53 57 57 56 56 56 56 55 55 54 53 51 54 55 53 55 51
36 32 32 27 24 22 20 22 21 20 18 18 16 15 15 14 14 14 18 23 26 29 37 44 47 50 52 53 55 56 56 56 56 56 55 55 54 53 50 53 54 53 54 56
30 31 33 25 19 22 21 21 22 21 20 18 18 17 16 15 14 14 16 19 25 28 33 41 47 49 52 52 55 56 56 55 56 56 56 55 54 53 50 51 50 50 52 56
22 24 22 28 26 22 21 19 17 18 19 19 19 17 18 18 16 18 17 17 19 30 34 40 46 48 50 52 54 55 55 55 56 55 55 55 55 54 52 51 50 49 49 52
24 22 20 23 25 21 21 21 18 19 20 18 18 16 17 19 17 20 21 20 24 29 34 37 43 47 49 51 55 54 54 54 55 56 55 55 55 54 53 51 50 50 49 51
22 20 21 24 27 22 23 24 21 21 22 24 25 19 18 19 20 18 19 19 20 25 31 36 42 47 48 51 52 54 53 54 55 54 56 55 55 54 54 53 52 51 51 52
18 19 19 17 23 25 25 25 21 20 19 21 22 19 17 20 20 19 19 19 22 26 30 36 39 46 48 51 52 54 53 52 55 55 55 55 55 55 55 54 54 53 52 51
20 19 20 19 17 21 22 23 26 26 19 22 20 25 30 26 26 26 27 28 29 28 29 30 36 41 48 50 51 53 53 51 52 55 55 55 54 54 55 54 54 54 53 53
33 22 18 24 24 21 21 21 22 25 26 23 24 24 31 29 26 26 27 27 28 28 28 30 32 39 42 49 50 53 53 52 51 53 56 55 55 55 55 55 54 54 54 54
29 25 21 20 25 27 22 23 23 25 31 33 28 29 30 25 25 25 24 27 28 29 29 30 31 38 41 45 48 51 53 53 51 51 54 56 56 56 55 55 55 55 54 55
26 32 27 19 27 33 29 23 28 27 32 33 34 31 33 32 28 23 24 23 22 23 30 34 37 39 39 43 47 49 52 53 53 51 51 54 56 56 56 56 56 56 56 55
33 32 31 28 28 26 26 28 25 27 33 32 29 28 32 34 33 23 20 20 21 24 32 36 39 40 41 41 41 45 49 53 53 52 51 50 54 56 56 56 56 56 56 56
35 30 32 29 29 24 21 26 34 33 22 23 28 32 31 29 21 21 21 23 26 31 36 38 39 40 41 41 42 42 43 49 53 53 52 52 51 53 55 55 56 56 56 56
29 30 31 26 27 24 20 20 27 29 21 19 18 19 23 20 19 20 25 27 35 36 38 39 40 41 42 43 44 43 44 43 46 52 53 53 52 52 53 54 55 55 55 56
24 23 29 26 31 21 20 19 19 21 21 22 22 22 20 21 24 24 33 35 35 35 37 38 39 40 42 45 46 47 47 47 42 42 50 52 53 53 53 54 54 54 55 55
24 23 26 27 24 28 25 18 15 16 18 18 15 17 22 26 27 32 34 35 35 36 36 37 39 40 43 44 43 44 45 46 47 46 39 48 51 52 53 53 53 54 54 55
24 26 24 24 22 21 18 21 22 18 14 21 26 27 27 27 29 33 34 35 36 38 37 37 38 39 41 40 40 41 43 44 48 50 52 51 44 51 52 52 53 54 54 54
23 25 23 23 22 20 16 18 21 17 27 31 30 32 32 31 31 32 34 36 36 38 37 36 36 37 37 35 35 38 39 41 40 44 49 48 49 51 51 52 53 53 50 42
22 24 24 22 20 18 18 21 19 35 37 36 35 34 35 34 33 33 37 37 37 35 35 35 34 34 34 32 32 33 34 37 39 42 45 44 43 44 46 47 44 42 40 37
28 22 21 20 20 24 28 34 35 35 36 35 34 33 33 33 33 34 35 35 34 33 33 33 33 32 31 30 30 31 32 36 36 37 37 37 37 37 39 39 38 37 35 33
34 33 22 27 26 21 36 36 34 34 34 33 33 33 33 33 33 33 33 32 30 30 29 29 28 28 27 28 28 30 31 34 33 31 31 30 29 30 32 34 34 33 32 30
33 36 29 29 33 37 39 38 33 33 33 32 33 32 32 32 32 32 30 29 28 27 26 26 25 25 25 26 26 29 30 31 30 29 28 28 27 27 26 27 28 27 29 29
29 34 32 32 36 38 37 34 33 32 32 31 30 30 30 30 29 29 27 26 25 25 25 23 23 23 24 25 26 28 29 30 28 27 26 26 25 25 25 25 25 28 28 28
Wind_Speed
16 20 24 26 24 26 28 27 26 21 20 18 22 20 20 19 18 17 18 16 13 18 18 19 15 12 22 17 15 15 13 14 14 13 11 16 16 17 21 16 17 20 14 11
17 28 24 23 23 26 30 29 28 28 17 4 11 16 19 20 19 20 16 18 15 16 20 21 19 15 16 21 17 16 17 17 15 13 11 8 20 14 17 8 16 14 16 13
24 17 21 23 23 25 30 31 25 28 22 17 8 20 24 23 22 19 16 11 16 18 22 24 22 18 16 20 20 17 18 19 17 17 14 12 13 14 14 7 15 16 20 18
15 24 17 22 29 26 30 28 28 25 22 22 17 20 19 21 21 18 18 14 12 11 21 27 24 22 19 20 21 20 19 21 18 20 19 22 18 22 22 15 15 17 18 20
5 10 18 30 23 29 29 23 19 19 22 22 24 19 17 16 16 26 22 22 20 18 18 26 27 23 21 18 24 22 20 22 21 21 21 22 20 19 22 15 14 16 21 17
22 14 26 24 22 29 24 20 21 17 20 25 23 23 18 20 17 15 10 11 21 20 16 21 27 25 23 21 23 24 24 23 24 24 22 23 24 23 23 19 20 17 14 17
21 24 26 21 21 22 21 18 17 12 20 19 21 20 18 20 11 5 4 3 6 20 17 19 27 25 24 25 25 24 25 24 24 26 25 26 23 25 26 27 24 24 21 18
7 15 26 18 21 19 25 21 13 10 12 21 26 14 22 25 18 5 3 4 8 13 13 15 23 26 24 26 26 25 25 25 25 26 27 25 26 22 21 27 25 24 24 21
4 10 11 19 20 19 19 23 23 22 9 8 13 24 20 8 8 5 6 8 5 10 12 11 15 24 25 26 26 26 26 27 27 29 26 27 27 26 25 25 27 26 25 20
7 8 18 18 21 20 22 20 16 10 8 8 9 9 14 12 10 11 8 10 7 7 9 16 15 21 24 25 26 25 25 25 28 28 27 26 28 27 26 27 28 28 27 28
18 17 8 17 16 20 18 23 15 18 17 8 4 6 17 17 14 9 14 16 15 13 8 6 7 18 25 26 26 27 25 26 26 29 28 27 29 29 28 29 29 31 29 29
15 9 16 22 22 18 22 19 24 14 12 21 11 2 22 8 11 11 12 12 11 8 11 8 4 3 7 22 23 26 25 23 24 27 29 30 28 29 29 30 29 28 31 29
12 7 15 12 11 16 22 26 17 21 14 8 10 7 13 15 13 8 9 14 17 18 16 18 17 4 6 12 18 21 26 26 22 24 28 29 31 33 34 34 32 30 30 29
7 10 13 16 5 8 10 23 26 23 11 8 11 6 10 16 11 7 10 15 16 18 18 22 24 25 26 2 13 16 20 24 25 23 25 30 32 34 35 32 32 32 33 33
4 7 14 19 21 19 15 19 16 13 18 14 17 17 10 10 22 6 7 12 12 12 16 18 20 21 22 23 21 9 18 22 25 26 26 30 28 29 28 30 32 31 32 31
6 4 16 13 10 9 11 11 10 20 19 6 10 9 15 21 13 11 12 12 12 12 17 15 16 19 22 25 25 25 23 17 22 27 29 27 26 27 30 29 29 28 32 33
2 4 6 4 8 10 10 14 18 19 9 7 13 8 14 5 6 9 11 12 16 16 16 17 18 19 19 21 24 25 26 25 16 22 27 27 26 28 30 30 28 30 32 29
17 12 4 7 8 7 5 2 10 14 9 13 15 5 2 8 10 8 17 17 14 15 16 16 17 18 19 20 24 28 27 27 25 20 23 25 28 29 29 28 31 32 31 31
21 17 6 5 7 9 10 4 3 4 8 13 4 7 8 9 5 11 17 13 14 16 17 19 18 18 20 21 23 24 26 26 27 28 22 22 27 29 28 28 31 30 26 27
24 20 19 10 5 4 9 4 2 1 2 12 12 11 10 9 4 12 4 9 13 16 21 23 21 18 19 21 23 22 23 25 25 30 29 32 22 27 29 28 27 25 23 23
24 21 23 19 12 7 7 3 3 8 6 15 15 14 13 9 10 12 10 12 14 19 21 23 23 21 20 22 23 22 22 21 27 30 29 26 27 18 25 24 21 21 13 16
20 17 14 16 14 16 4 4 6 14 17 12 10 10 12 13 15 16 20 20 21 21 21 22 21 21 21 23 22 22 22 23 23 25 25 20 20 21 14 16 15 19 19 18
5 15 13 13 14 6 7 18 15 16 16 9 11 12 12 11 12 14 16 19 20 21 21 22 21 21 21 22 23 24 22 21 19 18 19 19 16 16 16 12 15 18 18 18
4 16 18 4 10 12 15 12 17 14 14 12 13 13 13 11 13 13 14 18 18 18 19 18 19 19 20 21 21 20 21 18 15 17 18 19 20 19 17 15 14 14 17 17
5 4 5 9 2 11 19 8 18 18 16 15 14 15 13 11 12 13 15 16 15 16 17 17 17 17 19 20 20 19 19 16 14 19 18 20 19 21 22 25 19 23 22 16
5 3 3 5 9 18 11 17 17 15 14 13 14 13 14 14 14 13 13 12 13 14 15 16 17 19 20 20 20 21 20 17 15 21 18 20 19 20 19 22 32 38 40 40
Wind_Direction
228 230 228 222 227 252 267 268 275 258 242 248 213 238 258 239 241 214 203 217 236 180 180 167 163 153 144 158 174 165 154 152 141 139 134 133 131 129 140 163 180 172 163 164
271 235 229 232 237 236 253 262 270 272 277 211 273 256 266 256 240 232 217 197 212 187 162 157 157 171 169 162 174 170 161 161 154 149 147 124 138 123 137 155 161 155 153 163
245 259 229 240 237 244 249 252 254 263 277 275 228 266 261 259 250 236 208 230 206 195 169 161 166 180 179 163 165 170 165 165 158 159 144 123 125 137 158 163 168 170 164 170
234 267 257 252 241 241 246 243 244 257 264 260 238 261 272 233 237 224 228 199 223 211 173 164 171 176 186 171 161 166 171 169 167 164 163 158 166 168 179 175 166 179 168 182
233 244 239 243 243 225 251 254 254 256 253 263 264 269 267 286 247 217 206 200 204 200 185 167 171 176 179 181 163 166 179 177 173 172 176 174 177 179 182 185 188 186 187 185
257 244 253 271 238 258 275 250 256 256 258 245 248 257 265 259 248 245 196 200 197 185 185 167 165 170 173 178 163 165 177 185 178 179 176 181 183 180 185 188 197 207 205 188
247 254 253 247 252 243 259 262 228 232 237 243 245 245 238 263 287 9 127 161 178 159 166 168 161 170 176 177 170 167 177 187 183 181 183 188 186 186 193 192 196 204 213 204
257 247 246 237 237 224 234 254 224 203 231 241 231 233 237 230 254 65 334 232 118 133 155 173 170 171 179 176 170 176 179 188 190 188 187 187 192 191 193 197 200 205 213 216
228 249 221 231 241 212 220 252 251 257 269 293 271 222 242 169 134 168 203 191 165 156 159 171 176 172 178 178 180 181 183 187 192 198 190 191 192 192 193 199 202 207 210 218
239 274 288 227 203 227 207 231 256 252 233 239 262 195 208 209 172 199 153 175 169 130 158 177 181 176 179 178 180 182 187 195 188 194 198 196 197 199 195 201 202 206 210 215
245 239 272 284 206 217 212 230 227 252 232 235 247 252 6 38 61 75 56 60 63 59 63 13 198 184 180 178 179 184 191 194 193 188 197 201 203 204 200 205 205 205 209 208
306 264 236 241 255 214 259 250 222 231 224 240 254 254 156 166 66 40 34 28 68 21 34 94 37 39 194 176 180 182 190 204 198 190 192 202 203 208 207 211 210 208 209 209
353 249 250 259 242 254 217 245 250 230 244 224 246 230 229 126 126 89 33 24 24 17 10 5 12 116 173 180 188 191 189 196 211 199 195 197 203 204 210 212 212 210 216 213
344 274 264 255 221 347 287 221 217 225 232 218 226 168 339 337 333 74 75 54 24 6 19 18 8 4 5 293 195 203 197 197 200 217 207 203 205 209 212 211 211 214 213 215
83 288 311 291 300 214 226 250 250 218 229 236 233 245 267 288 288 249 48 52 36 20 27 14 1 352 352 353 355 314 215 197 201 209 219 222 211 213 214 215 216 214 216 218
142 276 324 305 285 275 268 214 241 279 211 229 195 303 242 235 248 45 32 18 10 24 29 8 359 4 356 347 342 339 341 225 199 207 219 223 221 215 219 219 217 215 217 219
186 275 328 266 311 297 262 248 194 222 256 232 247 254 32 30 38 40 13 10 41 22 16 16 8 7 353 343 333 331 327 323 290 213 217 223 222 221 221 219 218 220 221 219
265 273 262 291 311 228 229 34 256 243 224 240 257 314 167 38 29 11 55 52 33 17 25 17 15 359 356 355 356 343 335 326 314 287 231 224 224 227 226 217 218 222 221 219
228 234 238 242 240 303 299 217 273 200 230 252 178 143 104 73 5 57 44 40 29 20 18 20 11 4 2 6 351 337 328 326 324 323 303 245 226 226 230 225 222 224 222 221
220 214 222 226 236 263 228 154 179 317 143 89 89 69 52 51 71 74 343 26 17 23 25 12 8 7 11 1 349 338 335 328 341 340 332 327 275 223 223 224 226 221 220 225
202 202 214 228 243 248 269 183 142 199 92 47 47 49 44 26 350 330 10 20 19 32 22 13 4 9 9 359 349 343 337 340 331 327 326 343 344 300 218 219 215 209 173 134
191 194 208 224 242 248 246 265 179 95 65 54 30 56 49 16 7 6 18 30 30 21 14 9 4 1 5 356 351 345 340 332 331 328 328 341 351 356 27 105 103 101 110 110
237 207 199 193 217 295 90 102 88 91 99 57 40 33 27 22 6 8 10 28 25 20 12 2 2 357 2 356 356 344 336 334 340 355 355 356 4 24 16 68 97 105 110 116
292 297 225 278 249 206 111 110 96 86 77 62 44 36 32 15 10 11 21 28 22 17 9 4 3 4 358 355 357 349 341 343 9 26 18 17 17 16 31 44 58 83 103 107
239 344 244 228 91 43 50 41 75 71 61 56 54 50 40 33 30 30 37 28 20 18 12 14 12 12 7 4 2 359 356 9 31 48 36 31 33 36 48 49 50 69 52 81
352 133 239 86 48 104 99 63 58 66 60 50 58 54 49 45 51 52 52 36 30 31 26 25 23 20 15 12 10 10 14 24 35 58 52 49 44 47 42 67 74 65 77 75